EN

Hourly Weather Kyslivka

Today, 24 July, Saturday

Time Temperature Precipitation Wind Pressure Humidity
00:00 +17°C° 0 mm 2 mps 743 mmHg 62%
01:00 +17°C° 0 mm 2 mps 743 mmHg 64%
02:00 +17°C° 0 mm 2 mps 743 mmHg 67%
03:00 +16°C° 0 mm 2 mps 744 mmHg 69%
04:00 +16°C° 0 mm 2 mps 744 mmHg 70%
05:00 +17°C° 0 mm 2 mps 744 mmHg 71%
06:00 +17°C° 0 mm 2 mps 744 mmHg 72%
07:00 +19°C° 0 mm 2 mps 744 mmHg 65%
08:00 +21°C° 0 mm 2 mps 744 mmHg 59%
09:00 +24°C° 0 mm 2 mps 744 mmHg 52%
10:00 +25°C° 0 mm 2 mps 744 mmHg 47%
11:00 +26°C° 0 mm 2 mps 745 mmHg 42%
12:00 +28°C° 0 mm 2 mps 745 mmHg 38%
13:00 +28°C° 0 mm 2 mps 745 mmHg 37%
14:00 +28°C° 0 mm 2 mps 744 mmHg 36%
15:00 +29°C° 0 mm 2 mps 744 mmHg 35%
16:00 +27°C° 0 mm 3 mps 745 mmHg 42%
17:00 +26°C° 0 mm 4 mps 745 mmHg 49%
18:00 +23°C° 0 mm 4 mps 745 mmHg 56%
19:00 +22°C° 0 mm 3 mps 745 mmHg 60%
20:00 +21°C° 0 mm 2 mps 746 mmHg 63%
21:00 +20°C° 0 mm 2 mps 746 mmHg 66%
22:00 +20°C° 0 mm 2 mps 746 mmHg 68%
23:00 +20°C° 0 mm 1 mps 747 mmHg 70%

Tomorrow, 25 July, Sunday

Time Temperature Precipitation Wind Pressure Humidity
00:00 +19°C° 0 mm 1 mps 747 mmHg 72%
01:00 +19°C° 0 mm 1 mps 747 mmHg 72%
02:00 +18°C° 0 mm 2 mps 747 mmHg 72%
03:00 +17°C° 0 mm 2 mps 747 mmHg 72%
04:00 +18°C° 0 mm 2 mps 748 mmHg 70%
05:00 +18°C° 0 mm 2 mps 748 mmHg 67%
06:00 +18°C° 0 mm 2 mps 748 mmHg 65%
07:00 +19°C° 0 mm 2 mps 749 mmHg 62%
08:00 +20°C° 0 mm 2 mps 749 mmHg 59%
09:00 +21°C° 0 mm 2 mps 749 mmHg 56%
10:00 +23°C° 0 mm 2 mps 749 mmHg 54%
11:00 +24°C° 0 mm 3 mps 750 mmHg 52%
12:00 +25°C° 0 mm 3 mps 750 mmHg 51%
13:00 +26°C° 0 mm 3 mps 750 mmHg 47%
14:00 +27°C° 0 mm 3 mps 750 mmHg 44%
15:00 +27°C° 0 mm 3 mps 750 mmHg 41%
16:00 +27°C° 0 mm 3 mps 749 mmHg 42%
17:00 +27°C° 0 mm 3 mps 749 mmHg 42%
18:00 +27°C° 0 mm 3 mps 749 mmHg 43%
19:00 +25°C° 0 mm 3 mps 750 mmHg 48%
20:00 +24°C° 0 mm 3 mps 750 mmHg 53%
21:00 +21°C° 0 mm 3 mps 750 mmHg 58%
22:00 +20°C° 0 mm 3 mps 750 mmHg 58%
23:00 +19°C° 0 mm 3 mps 750 mmHg 59%

Day after tomorrow, 26 July, Monday

Time Temperature Precipitation Wind Pressure Humidity
00:00 +19°C° 0 mm 3 mps 750 mmHg 59%
01:00 +18°C° 0 mm 3 mps 751 mmHg 61%
02:00 +17°C° 0 mm 3 mps 751 mmHg 63%
03:00 +17°C° 0 mm 3 mps 751 mmHg 64%
04:00 +17°C° 0 mm 3 mps 751 mmHg 64%
05:00 +17°C° 0 mm 3 mps 751 mmHg 64%
06:00 +16°C° 0 mm 3 mps 751 mmHg 64%
07:00 +19°C° 0 mm 3 mps 751 mmHg 58%
08:00 +21°C° 0 mm 4 mps 751 mmHg 52%
09:00 +23°C° 0 mm 5 mps 751 mmHg 46%
10:00 +25°C° 0 mm 4 mps 751 mmHg 43%
11:00 +27°C° 0 mm 4 mps 751 mmHg 40%
12:00 +28°C° 0 mm 4 mps 751 mmHg 37%
13:00 +29°C° 0 mm 4 mps 751 mmHg 36%
14:00 +29°C° 0 mm 4 mps 751 mmHg 35%
15:00 +30°C° 0 mm 3 mps 750 mmHg 33%
16:00 +29°C° 0 mm 3 mps 750 mmHg 35%
17:00 +29°C° 0 mm 3 mps 750 mmHg 37%
18:00 +29°C° 0 mm 3 mps 750 mmHg 38%
19:00 +27°C° 0 mm 3 mps 750 mmHg 45%
20:00 +25°C° 0 mm 3 mps 750 mmHg 51%
21:00 +21°C° 0 mm 3 mps 750 mmHg 57%
22:00 +21°C° 0 mm 4 mps 751 mmHg 57%
23:00 +20°C° 0 mm 4 mps 751 mmHg 57%

27 July, Tuesday

Time Temperature Precipitation Wind Pressure Humidity
00:00 +20°C° 0 mm 4 mps 751 mmHg 57%
01:00 +19°C° 0 mm 4 mps 750 mmHg 56%
02:00 +19°C° 0 mm 4 mps 750 mmHg 56%
03:00 +18°C° 0 mm 4 mps 750 mmHg 56%
04:00 +18°C° 0 mm 3 mps 750 mmHg 56%
05:00 +18°C° 0 mm 3 mps 750 mmHg 57%
06:00 +18°C° 0 mm 3 mps 751 mmHg 57%
07:00 +20°C° 0 mm 3 mps 751 mmHg 53%
08:00 +22°C° 0 mm 3 mps 751 mmHg 48%
09:00 +25°C° 0 mm 4 mps 751 mmHg 44%
10:00 +27°C° 0 mm 3 mps 751 mmHg 41%
11:00 +28°C° 0 mm 3 mps 751 mmHg 38%
12:00 +29°C° 0 mm 3 mps 751 mmHg 36%
13:00 +30°C° 0 mm 3 mps 750 mmHg 34%
14:00 +31°C° 0 mm 3 mps 750 mmHg 33%
15:00 +31°C° 0 mm 2 mps 750 mmHg 32%
16:00 +31°C° 0 mm 2 mps 750 mmHg 34%
17:00 +30°C° 0 mm 3 mps 750 mmHg 36%
18:00 +30°C° 0 mm 3 mps 749 mmHg 38%
19:00 +28°C° 0 mm 3 mps 749 mmHg 42%
20:00 +26°C° 0 mm 3 mps 750 mmHg 46%
21:00 +25°C° 0 mm 3 mps 750 mmHg 50%
22:00 +24°C° 0 mm 3 mps 750 mmHg 50%
23:00 +24°C° 0 mm 3 mps 750 mmHg 50%

28 July, Wednesday

Time Temperature Precipitation Wind Pressure Humidity
00:00 +22°C° 0 mm 3 mps 750 mmHg 50%
01:00 +22°C° 0 mm 3 mps 750 mmHg 49%
02:00 +22°C° 0 mm 3 mps 750 mmHg 48%
03:00 +21°C° 0 mm 3 mps 749 mmHg 48%
04:00 +21°C° 0 mm 2 mps 749 mmHg 49%
05:00 +21°C° 0 mm 2 mps 749 mmHg 51%
06:00 +21°C° 0 mm 2 mps 749 mmHg 52%
07:00 +24°C° 0 mm 2 mps 749 mmHg 48%
08:00 +25°C° 0 mm 3 mps 749 mmHg 44%
09:00 +27°C° 0 mm 3 mps 749 mmHg 40%
10:00 +29°C° 0 mm 3 mps 749 mmHg 38%
11:00 +30°C° 0 mm 3 mps 749 mmHg 35%
12:00 +31°C° 0 mm 2 mps 748 mmHg 33%
13:00 +32°C° 0 mm 2 mps 748 mmHg 31%
14:00 +34°C° 0 mm 2 mps 748 mmHg 29%
15:00 +34°C° 0 mm 2 mps 747 mmHg 28%
16:00 +34°C° 0 mm 2 mps 747 mmHg 30%
17:00 +33°C° 0 mm 3 mps 747 mmHg 31%
18:00 +33°C° 0 mm 3 mps 746 mmHg 33%
19:00 +30°C° 0 mm 3 mps 746 mmHg 36%
20:00 +28°C° 0 mm 3 mps 746 mmHg 39%
21:00 +27°C° 0 mm 3 mps 746 mmHg 42%
22:00 +26°C° 0 mm 3 mps 746 mmHg 44%
23:00 +25°C° 0 mm 2 mps 746 mmHg 45%

29 July, Thursday

Time Temperature Precipitation Wind Pressure Humidity
00:00 +24°C° 0 mm 2 mps 746 mmHg 47%
01:00 +24°C° 0 mm 3 mps 745 mmHg 49%
02:00 +22°C° 0 mm 3 mps 745 mmHg 51%
03:00 +22°C° 0 mm 3 mps 745 mmHg 54%
04:00 +22°C° 0 mm 3 mps 745 mmHg 53%
05:00 +24°C° 0 mm 3 mps 745 mmHg 53%
06:00 +24°C° 0 mm 3 mps 745 mmHg 53%
07:00 +25°C° 0 mm 4 mps 744 mmHg 50%
08:00 +27°C° 0 mm 5 mps 744 mmHg 48%
09:00 +28°C° 0 mm 6 mps 744 mmHg 46%
10:00 +29°C° 0 mm 6 mps 744 mmHg 43%
11:00 +30°C° 0 mm 6 mps 744 mmHg 40%
12:00 +32°C° 0 mm 7 mps 744 mmHg 37%
13:00 +32°C° 0 mm 7 mps 744 mmHg 41%
14:00 +30°C° 0 mm 6 mps 744 mmHg 44%
15:00 +30°C° 0 mm 6 mps 743 mmHg 48%
16:00 +30°C° 0 mm 6 mps 743 mmHg 47%
17:00 +30°C° 0 mm 6 mps 743 mmHg 47%
18:00 +30°C° 0 mm 6 mps 742 mmHg 46%
19:00 +28°C° 1.1 mm 6 mps 742 mmHg 60%
20:00 +25°C° 1.1 mm 5 mps 743 mmHg 73%
21:00 +21°C° 1.1 mm 5 mps 743 mmHg 87%
22:00 +21°C° 0.3 mm 4 mps 743 mmHg 88%
23:00 +21°C° 0.3 mm 4 mps 743 mmHg 89%
Show more